Regional Weather Roundup
Issued by NWS

Home | Current Version | Previous Version | Graphics & Text | Print | Product List | Glossary On
Versions: 1 2 3 4 5 6 7 8 9 10 11 12 13 14 15 16 17 18 19 20 21 22 23 24 25 26 27 28 29 30 31 32 33 34 35 36 37 38 39 40 41 42 43 44 45 46 47 48 49 50
000
ASUS43 KTOP 052159
RWRKS

WEATHER ROUNDUP FOR KANSAS
NATIONAL WEATHER SERVICE GOODLAND KS
400 PM CST THU MAR 05 2015

NOTE:  "FAIR" INDICATES FEW OR NO CLOUDS BELOW 12,000 FEET WITH NO
SIGNIFICANT WEATHER AND/OR OBSTRUCTIONS TO VISIBILITY.

KSZ001>006-013>018-027>032-041>047-052300-
NORTHWEST KANSAS

CITY           SKY/WX    TMP DP  RH WIND       PRES   REMARKS
GOODLAND       MOSUNNY   46  11  24 SW15      30.24S
HAYS           SUNNY     46   7  19 W9G16     30.33S
HILL CITY      SUNNY     48   1  14 SW10      30.28F
RUSSELL        SUNNY     45   3  17 S7        30.32F
$$

KSZ061>065-074>080-084>089-052300-
SOUTHWEST KANSAS

CITY           SKY/WX    TMP DP  RH WIND       PRES   REMARKS
DODGE CITY     SUNNY     46   8  21 SW9       30.33S
ELKHART          N/A     46  12  25 S6          N/A
GARDEN CITY    SUNNY     45   6  20 CALM      30.30S
GREAT BEND     SUNNY     46  10  23 W13       30.34F
LIBERAL        SUNNY     45  19  36 S10       30.34S
$$

KSZ066>073-081>083-090>101-052300-
SOUTHEAST KANSAS

CITY           SKY/WX    TMP DP  RH WIND       PRES   REMARKS
CHANUTE        SUNNY     39  13  34 VRB3      30.48F
COFFEYVILLE    SUNNY     39  15  37 SE3       30.50F
HUTCHINSON     SUNNY     45  16  31 SW15      30.38F
MEDICINE LODGE   N/A     47  12  24 W6G16     30.38F
NEWTON         SUNNY     41  18  38 SW10      30.42S
PARSONS        SUNNY     40  15  36 S6        30.49F
WICHITA INTL   SUNNY     45  12  26 W9G18     30.41F
WICHITA JABRA  SUNNY     43  12  28 SW10      30.41F
WINFIELD       SUNNY     44  15  31 W13       30.45F
$$

KSZ007>012-019>026-033>040-048>060-102>105-052300-
NORTHEAST KANSAS

CITY           SKY/WX    TMP DP  RH WIND       PRES   REMARKS
CONCORDIA      SUNNY     40   6  24 SW7       30.37F
EMPORIA        SUNNY     38  15  39 VRB3      30.43F
LAWRENCE       SUNNY     33   4  29 SW6       30.49F
MANHATTAN      SUNNY     40  10  29 S6        30.42F
OLATHE IND     SUNNY     31   7  36 CALM      30.49F
OLATHE EXE     SUNNY     32   6  33 VRB3      30.48S
SALINA         SUNNY     46   4  17 W10       30.39S
TOPEKA BILLARD SUNNY     35   6  29 S8        30.48S
TOPEKA FORBES  SUNNY     36   8  31 SW7       30.46S
$$


USA.gov is the U.S. government's official web portal to all federal, state and local government web resources and services.